STARLINK-30423, 57843

Orbit data source: Space-Track

STARLINK-30423, 57843 is a payload satellite owned by SpaceX/Seattle (US) in LEO that was launched on Tue, 12 Sep 2023 UTC via an FALCON 9 launch vehicle from the Air Force Western Test Range (AFWTR). Payload-class satellites include a variety of spacecraft equipped with specific instruments for various scientific and technological missions. These include communications satellites like Starlink; space stations such as the ISS; scientific satellites like the Hubble; Earth observation satellites from companies like Planet Labs, Umbra, and HawkEye 360; GPS; miniature CubeSats for education and research; and military/defense satellites.

Loading next visibility...
Identifier
57843, 2023-141D
Orbit
LEO
Country
Flag of USUS
Related business
Manufacturer
SpaceX/Seattle
Mission
Operational Commercial Communications
Bus & Motor
STARLINK V2M, Unknown motor
Mass
730 kg wet, ~700 kg dry
Launch date (UTC)
2023-09-12 (3 years ago)
Launch vehicle
FALCON 9
Launch site
Air Force Western Test Range (AFWTR)
Object type
Payload
Rocket body
Debris
Shape & HBR
Box + 2 Pan, 17.7 m
Radar Cross Section
33.884 m², Large (>1 m²)

Expand to show TLE details & history
Last TLE update: 2 days ago

TLE from 2 days ago
0 STARLINK-30423
1 57843U 23141D   26171.30935014  .00001247  00000-0  51929-4 0  9994
2 57843  53.1601 166.9639 0001364  96.6728 263.4429 15.31707526156040
Epoch: 2026-06-20T07:25Z
TLE epoch observation values (Epoch: 2026-06-20T07:25:27.852Z)
Latitude
0.00002°
Longitude
147.07205°
Altitude
471.725 km
Speed
7.631 km/s
True Right ascension
11h 07m 51s
True Declination
0° 00' 00"
Sunlit
Object was in daylight at epoch
Visualization orbit readout
Latitude
Unknown
Longitude
Unknown
Altitude
Unknown
Speed
Unknown
Apparent Right ascension
Unknown
Apparent Declination
Unknown
Sunlit
N/A
Visualization observer readout
Local Sidereal Time
21:33:47
Azimuth
Unknown
Elevation
Unknown
Doppler factor
Unknown
Orbital elements
Apogee altitude
471.908 km
Perigee altitude
470.04 km
Semi-major axis
6,849.111 km
Eccentricity
0.00014
Inclination
53.1601°
RAAN
166.9639°
Arg. of periapsis
96.6728°
True anomaly
263.42737°
Mean anomaly
263.4429°
Eccentric anomaly
263.43514°
Mean motion
3.82906 °/min
Orbital period
94.02 mins
BSTAR
0.000051929
Loading maneuver chart data...
Computing Atmospheric mass density...
Loading historical data...
Loading historical data...
Loading historical data...
Loading historical data...
Loading historical data...
Loading historical data...
Loading historical data...

Documentation

Showing up to 5 results
|